GORIZONT 1 1 11158U 78118A 21016.93673152 -.00000233 00000-0 00000-0 0 9996 2 11158 11.6749 226.4301 3574850 252.5944 65.6209 1.00247513103114 GORIZONT 2 1 11440U 79062A 21017.09619715 -.00000103 00000-0 00000-0 0 9998 2 11440 10.4492 307.9760 0004002 331.4570 307.4823 1.00307103118195 GORIZONT 3 1 11648U 79105A 21017.83408282 -.00000346 00000-0 00000+0 0 9991 2 11648 10.5921 309.2840 0010466 200.6294 16.9974 1.00282659102648 GORIZONT 4 1 11841U 80049A 21017.19910500 -.00000237 00000-0 00000-0 0 9995 2 11841 11.7020 314.5444 0003790 0.8756 13.4341 0.98631184214023 GORIZONT 5 1 13092U 82020A 21017.15880284 -.00000029 00000-0 00000-0 0 9996 2 13092 12.6233 319.6134 0031016 197.6989 58.0892 0.98531210102117 GORIZONT 6 1 13624U 82103A 21017.30238479 -.00000258 00000-0 00000-0 0 9993 2 13624 11.5207 319.5421 0000925 50.0044 180.2060 1.00242686101129 GORIZONT 7 1 14160U 83066A 21017.03983882 -.00000103 00000-0 00000-0 0 9992 2 14160 13.0515 328.3083 0011767 316.8817 232.5056 0.98348203135304 GORIZONT 8 1 14532U 83118A 21017.09905247 -.00000004 00000-0 00000-0 0 9998 2 14532 13.1910 330.0562 0027344 130.2734 127.3117 0.98267993101075 GORIZONT 9 1 14940U 84041A 21017.47636816 .00000064 00000-0 00000-0 0 9997 2 14940 12.3955 328.2856 0001900 225.7439 150.1713 1.00248614102121 GORIZONT 10 1 15144U 84078A 21017.35916569 -.00000254 00000-0 00000-0 0 9999 2 15144 12.4737 329.2768 0003158 5.8947 235.6140 1.00295085134759 GORIZONT 11 1 15484U 85007A 21017.16510719 -.00000133 00000-0 00000-0 0 9991 2 15484 12.6124 331.1856 0002760 60.6038 129.6133 1.00285386132807 GORIZONT 12 1 16769U 86044A 21017.47401279 .00000114 00000-0 00000-0 0 9992 2 16769 13.1248 336.3671 0002866 335.7819 18.9443 1.00304399127432 GORIZONT 13 1 17083U 86090A 21017.53245413 -.00000075 00000-0 00000-0 0 9993 2 17083 14.8686 343.1443 0017393 331.2878 240.5314 0.96725310 99528 GORIZONT 14 1 17969U 87040A 21017.62340664 -.00000188 00000-0 00000-0 0 9991 2 17969 14.0029 334.8829 0027663 157.3504 11.8735 0.97660157100553 GORIZONT 15 1 19017U 88028A 21017.81126414 -.00000106 00000-0 00000+0 0 9999 2 19017 15.0742 346.1380 0033729 139.4403 219.7216 0.97828569100151 GORIZONT 16 1 19397U 88071A 21017.63820894 .00000009 00000-0 00000-0 0 9993 2 19397 13.9418 344.8756 0016540 33.8513 153.0793 0.99986139118476 GORIZONT 17 1 19765U 89004A 21017.63690185 -.00000192 00000-0 00000-0 0 9991 2 19765 14.4118 348.0835 0020426 109.1153 66.9685 0.99068964115990 GORIZONT 18 1 20107U 89052A 21017.59373587 .00000056 00000-0 00000-0 0 9993 2 20107 14.4202 349.3698 0036616 307.4646 248.7156 0.99400332114761 GORIZONT 19 1 20263U 89081A 21017.83730045 -.00000374 00000-0 00000+0 0 9994 2 20263 14.1632 348.6356 0003007 312.7387 231.4567 1.00274871114675 GORIZONT 20 1 20659U 90054A 21017.48003208 -.00000093 00000-0 00000-0 0 9999 2 20659 14.5263 351.5103 0003524 139.8081 232.7773 1.00222725111877 GORIZONT 21 1 20923U 90094A 21017.58405243 .00000082 00000-0 00000-0 0 9990 2 20923 14.5161 352.3065 0001645 244.0286 284.8705 1.00217030110620 GORIZONT 22 1 20953U 90102A 21017.68110792 -.00000011 00000-0 00000+0 0 9998 2 20953 14.4692 352.6310 0006009 354.3590 18.0044 1.00286206110588 GORIZONT 23 1 21533U 91046A 21017.24475635 -.00000255 00000-0 00000-0 0 9994 2 21533 15.1266 356.6395 0007182 321.0388 221.4488 0.98910567 27134 GORIZONT 24 1 21759U 91074A 21017.43032935 -.00000190 00000-0 00000-0 0 9996 2 21759 15.2310 358.4499 0015500 220.1299 9.7864 0.98444084105490 GORIZONT 25 1 21922U 92017A 21017.63932844 -.00000017 00000-0 00000-0 0 9994 2 21922 14.7849 357.9085 0029044 58.9390 115.5276 0.99857497105204 GORIZONT 26 1 22041U 92043A 21017.53359587 .00000028 00000-0 00000-0 0 9993 2 22041 14.9033 359.7997 0028954 226.5747 329.7996 0.99240399103858 GORIZONT 27 1 22245U 92082A 21017.53445413 -.00000061 00000-0 00000-0 0 9994 2 22245 14.8257 359.5819 0015764 349.9790 208.8880 1.00144816107319 GORIZONT 28 1 22880U 93069A 21017.41216240 -.00000152 00000-0 00000-0 0 9997 2 22880 14.8616 3.2852 0031264 112.7182 242.9499 0.99647775 99423 GORIZONT 29 1 22907U 93072A 21017.51229444 -.00000261 00000-0 00000-0 0 9993 2 22907 14.7858 2.8259 0013882 331.4888 252.5472 1.00124315 99370 GORIZONT 30 1 23108U 94030A 21017.29462684 -.00000037 00000-0 00000-0 0 9993 2 23108 14.7733 3.7633 0002194 330.6755 247.5917 1.00295500 97630 GORIZONT 31 1 23775U 96005A 21017.31594098 -.00000270 00000-0 00000-0 0 9994 2 23775 14.5114 9.7697 0015872 192.1030 359.8890 0.99898284 91301 GORIZONT 32 1 23880U 96034A 21017.54877411 .00000047 00000-0 00000-0 0 9992 2 23880 14.4442 10.3191 0011773 336.7346 26.2604 1.00141217 90239 GORIZONT 33 1 26372U 00029A 21017.63492416 .00000012 00000-0 00000-0 0 9990 2 26372 12.8512 21.0328 0003791 10.1606 132.8137 1.00275373 75602